Voltar ao catálogo

STARLINK-3387

AtivoComunicaçõesVLEO
NORAD 51125·PAYLOAD·🇺🇸 United States

Lançado Jan 19, 2022 de Cape Canaveral Space Force Station

Loading…

Próximas Passagens (próximas 24 horas)

TLE

AtualizadoSource: CelesTrak SupGP

Época: Sep 15, 2026, 01:10 UTC

1 51125C 22005X   26258.04909722 -.00011586  00000+0 -33157-3 0  2581
2 51125  53.1576 155.5151 0001179  76.4514 348.6338 15.35395520    15

Acompanhe STARLINK-3387 em tempo real com AllMySat

Download on the App Store